AAL137 EGLL-KLAX

Flight info

Callsign AAL137
Flight time N/A
Altitude 36000
Route ULTIB T420 TNT UL28 RODOL UM65 TENSO L603 BELOX MIMKU AGORI/M082F320 58N020W 5930N03000W 6030N04000W 6030N05000W/M082F340 PIDSO N950B MUSLO/N0485F340 N950B RODBO TUNNI LENUT/N0479F360 GOSEP YER ZSJ AXENO DUVIS KERBI 49N099W OGSIQ DIK WUVUT/N0470F380 DDY CKW WEEMN SARAF BAWER PIIXR ZZYZX Q88 HAKMN ANJLL4
Aircraft B77W/H-SDE1E2E3FGHIJ2J3J4J5M1RWXY/LB1D1

Departure

Time N/A
Airport London Heathrow Airport (EGLL)

Arrival

Time 2026-04-21 04:31
Airport Los Angeles International Airport (KLAX)
Time Latitude Longitude Altitude Speed Heading
2026-04-21 04:05 34.57742 -116.27420 33647 ft 436 kts 226°
2026-04-21 04:05 34.55666 -116.30049 32908 ft 437 kts 226°
2026-04-21 04:05 34.53562 -116.32712 32170 ft 438 kts 226°
2026-04-21 04:05 34.51452 -116.35381 31406 ft 439 kts 225°
2026-04-21 04:06 34.49296 -116.38014 30633 ft 440 kts 221°
2026-04-21 04:06 34.46843 -116.40229 30020 ft 438 kts 211°
2026-04-21 04:06 34.44130 -116.41877 29341 ft 435 kts 201°
2026-04-21 04:06 34.41246 -116.42905 28841 ft 429 kts 192°
2026-04-21 04:07 34.38290 -116.43342 28291 ft 427 kts 185°
2026-04-21 04:07 34.35313 -116.43470 28031 ft 429 kts 182°
2026-04-21 04:07 34.32318 -116.43502 27958 ft 431 kts 181°
2026-04-21 04:07 34.29306 -116.43505 27970 ft 435 kts 181°
2026-04-21 04:08 34.26269 -116.43498 27958 ft 436 kts 181°
2026-04-21 04:08 34.23235 -116.43484 27875 ft 434 kts 181°
2026-04-21 04:08 34.20218 -116.43464 27673 ft 433 kts 181°
2026-04-21 04:08 34.17220 -116.43457 27452 ft 425 kts 184°
2026-04-21 04:09 34.14389 -116.44182 27169 ft 412 kts 205°
2026-04-21 04:09 34.12094 -116.46127 27008 ft 400 kts 227°
2026-04-21 04:09 34.10556 -116.48856 26880 ft 399 kts 242°
2026-04-21 04:09 34.09507 -116.51956 26781 ft 401 kts 250°
2026-04-21 04:10 34.08870 -116.55239 26669 ft 404 kts 258°
2026-04-21 04:10 34.08648 -116.58631 26466 ft 409 kts 270°
2026-04-21 04:10 34.09246 -116.62008 26175 ft 417 kts 287°
2026-04-21 04:10 34.10323 -116.65270 25963 ft 419 kts 289°
2026-04-21 04:11 34.11452 -116.68508 25782 ft 416 kts 289°
2026-04-21 04:11 34.12560 -116.71721 25479 ft 413 kts 289°
2026-04-21 04:11 34.13633 -116.74918 25171 ft 408 kts 288°
2026-04-21 04:11 34.14658 -116.78049 24767 ft 404 kts 288°
2026-04-21 04:12 34.15672 -116.81199 24338 ft 401 kts 287°
2026-04-21 04:12 34.16673 -116.84336 23877 ft 399 kts 287°
2026-04-21 04:12 34.17666 -116.87455 23433 ft 397 kts 287°
2026-04-21 04:12 34.18654 -116.90554 22933 ft 394 kts 287°
2026-04-21 04:13 34.19626 -116.93598 22330 ft 384 kts 287°
2026-04-21 04:13 34.20506 -116.96619 21421 ft 378 kts 278°
2026-04-21 04:13 34.20655 -116.99743 20523 ft 369 kts 259°
2026-04-21 04:13 34.20019 -117.02722 19863 ft 366 kts 248°
2026-04-21 04:14 34.19195 -117.05611 19418 ft 357 kts 248°
2026-04-21 04:14 34.18397 -117.08439 18851 ft 354 kts 248°
2026-04-21 04:14 34.17619 -117.11266 18403 ft 355 kts 248°
2026-04-21 04:14 34.16847 -117.14108 17838 ft 356 kts 248°
2026-04-21 04:15 34.16077 -117.16942 17348 ft 355 kts 248°
2026-04-21 04:15 34.15300 -117.19761 16888 ft 353 kts 248°
2026-04-21 04:15 34.14524 -117.22561 16431 ft 351 kts 248°
2026-04-21 04:15 34.13751 -117.25357 15968 ft 349 kts 249°
2026-04-21 04:16 34.12984 -117.28130 15534 ft 347 kts 249°
2026-04-21 04:16 34.12222 -117.30889 15094 ft 346 kts 249°
2026-04-21 04:16 34.11473 -117.33596 14665 ft 344 kts 249°
2026-04-21 04:16 34.10716 -117.36325 14224 ft 342 kts 249°
2026-04-21 04:17 34.09990 -117.39053 13775 ft 341 kts 250°
2026-04-21 04:17 34.09310 -117.41797 13288 ft 340 kts 251°
2026-04-21 04:17 34.08638 -117.44525 12848 ft 338 kts 250°
2026-04-21 04:17 34.07967 -117.47220 12555 ft 331 kts 250°
2026-04-21 04:18 34.07312 -117.49835 12386 ft 322 kts 250°
2026-04-21 04:18 34.06660 -117.52410 11971 ft 320 kts 250°
2026-04-21 04:18 34.06007 -117.54977 11586 ft 318 kts 250°
2026-04-21 04:18 34.05357 -117.57523 11197 ft 317 kts 250°
2026-04-21 04:19 34.04711 -117.60059 10812 ft 316 kts 250°
2026-04-21 04:19 34.04068 -117.62583 10477 ft 313 kts 250°
2026-04-21 04:19 34.03440 -117.65047 10347 ft 303 kts 250°
2026-04-21 04:19 34.02830 -117.67441 10209 ft 294 kts 250°
2026-04-21 04:20 34.02241 -117.69766 10081 ft 285 kts 251°
2026-04-21 04:20 34.01876 -117.72093 9857 ft 281 kts 259°
2026-04-21 04:20 34.01677 -117.74439 9505 ft 281 kts 261°
2026-04-21 04:20 34.01492 -117.76694 9180 ft 267 kts 261°
2026-04-21 04:21 34.01310 -117.78868 8858 ft 255 kts 260°
2026-04-21 04:21 34.01118 -117.80970 8558 ft 243 kts 260°
2026-04-21 04:21 34.00932 -117.82930 8297 ft 236 kts 259°
2026-04-21 04:21 34.00745 -117.84876 8046 ft 232 kts 259°
2026-04-21 04:22 34.00560 -117.86784 7794 ft 228 kts 260°
2026-04-21 04:22 34.00375 -117.88679 7488 ft 226 kts 260°
2026-04-21 04:22 34.00203 -117.90557 7229 ft 224 kts 261°
2026-04-21 04:22 34.00049 -117.92410 6961 ft 221 kts 261°
2026-04-21 04:23 33.99881 -117.94245 6690 ft 218 kts 261°
2026-04-21 04:23 33.99706 -117.96048 6433 ft 215 kts 260°
2026-04-21 04:23 33.99528 -117.97828 6161 ft 212 kts 261°
2026-04-21 04:23 33.99351 -117.99576 5908 ft 209 kts 260°
2026-04-21 04:24 33.99175 -118.01310 5651 ft 207 kts 261°
2026-04-21 04:24 33.99000 -118.03021 5407 ft 205 kts 261°
2026-04-21 04:24 33.98827 -118.04714 5172 ft 203 kts 261°
2026-04-21 04:24 33.98664 -118.06319 4935 ft 202 kts 261°
2026-04-21 04:25 33.98496 -118.07967 4698 ft 200 kts 261°
2026-04-21 04:25 33.98326 -118.09629 4453 ft 199 kts 261°
2026-04-21 04:25 33.98158 -118.11283 4235 ft 198 kts 261°
2026-04-21 04:25 33.97992 -118.12912 4143 ft 194 kts 261°
2026-04-21 04:26 33.97830 -118.14499 4075 ft 192 kts 261°
2026-04-21 04:26 33.97667 -118.16094 4022 ft 192 kts 261°
2026-04-21 04:26 33.97502 -118.17709 3795 ft 195 kts 261°
2026-04-21 04:26 33.97338 -118.19320 3550 ft 191 kts 262°
2026-04-21 04:27 33.97178 -118.20891 3305 ft 186 kts 262°
2026-04-21 04:27 33.97023 -118.22416 3052 ft 180 kts 262°
2026-04-21 04:27 33.96873 -118.23890 2820 ft 174 kts 262°
2026-04-21 04:27 33.96726 -118.25331 2601 ft 173 kts 262°
2026-04-21 04:28 33.96578 -118.26783 2387 ft 175 kts 263°
2026-04-21 04:28 33.96431 -118.28223 2152 ft 168 kts 262°
2026-04-21 04:28 33.96296 -118.29554 1918 ft 156 kts 263°
2026-04-21 04:28 33.96169 -118.30796 1721 ft 143 kts 263°
2026-04-21 04:29 33.96049 -118.31966 1557 ft 141 kts 263°
2026-04-21 04:29 33.95926 -118.33179 1341 ft 147 kts 263°
2026-04-21 04:29 33.95802 -118.34397 1142 ft 146 kts 263°
2026-04-21 04:29 33.95680 -118.35595 922 ft 144 kts 262°
2026-04-21 04:30 33.95560 -118.36781 745 ft 141 kts 263°
2026-04-21 04:30 33.95444 -118.37950 533 ft 139 kts 261°
2026-04-21 04:30 33.95321 -118.39079 351 ft 138 kts 262°
2026-04-21 04:30 33.95210 -118.40218 157 ft 137 kts 263°
2026-04-21 04:31 33.95098 -118.41299 110 ft 116 kts 263°
2026-04-21 04:31 33.95018 -118.42082 109 ft 72 kts 263°
2026-04-21 04:31 33.94955 -118.42487 109 ft 27 kts 249°
2026-04-21 04:31 33.94891 -118.42623 110 ft 15 kts 234°
2026-04-21 04:32 33.94868 -118.42657 109 ft 2 kts 227°
2026-04-21 04:32 33.94864 -118.42661 109 ft 1 kts 227°
2026-04-21 04:32 33.94861 -118.42665 109 ft 0 kts 226°
2026-04-21 04:32 33.94845 -118.42685 109 ft 10 kts 224°
2026-04-21 04:33 33.94791 -118.42737 109 ft 10 kts 214°
2026-04-21 04:33 33.94707 -118.42779 110 ft 14 kts 189°
2026-04-21 04:33 33.94628 -118.42775 106 ft 12 kts 174°
2026-04-21 04:33 33.94535 -118.42761 103 ft 14 kts 173°
2026-04-21 04:34 33.94432 -118.42747 101 ft 15 kts 174°
2026-04-21 04:34 33.94324 -118.42732 100 ft 16 kts 173°
2026-04-21 04:34 33.94214 -118.42715 101 ft 16 kts 173°
2026-04-21 04:34 33.94104 -118.42698 101 ft 16 kts 172°
2026-04-21 04:35 33.93996 -118.42682 102 ft 16 kts 173°
2026-04-21 04:35 33.93888 -118.42666 101 ft 15 kts 173°
2026-04-21 04:35 33.93782 -118.42650 102 ft 15 kts 173°
2026-04-21 04:35 33.93704 -118.42639 100 ft 10 kts 173°
2026-04-21 04:36 33.93639 -118.42623 102 ft 9 kts 151°
2026-04-21 04:36 33.93615 -118.42567 104 ft 8 kts 97°
2026-04-21 04:36 33.93625 -118.42475 103 ft 12 kts 83°
2026-04-21 04:36 33.93636 -118.42374 103 ft 12 kts 82°
2026-04-21 04:37 33.93646 -118.42273 107 ft 12 kts 83°
2026-04-21 04:37 33.93656 -118.42172 109 ft 12 kts 83°
2026-04-21 04:37 33.93666 -118.42071 108 ft 12 kts 82°
2026-04-21 04:37 33.93679 -118.41968 109 ft 13 kts 83°
2026-04-21 04:38 33.93689 -118.41860 109 ft 13 kts 83°
2026-04-21 04:38 33.93698 -118.41774 110 ft 11 kts 83°
2026-04-21 04:38 33.93707 -118.41682 109 ft 12 kts 83°
2026-04-21 04:38 33.93717 -118.41581 109 ft 12 kts 82°
2026-04-21 04:39 33.93728 -118.41477 108 ft 13 kts 83°
2026-04-21 04:39 33.93740 -118.41365 108 ft 14 kts 82°
2026-04-21 04:39 33.93751 -118.41246 108 ft 14 kts 83°
2026-04-21 04:39 33.93764 -118.41124 107 ft 15 kts 82°
2026-04-21 04:40 33.93777 -118.40993 106 ft 16 kts 84°
2026-04-21 04:40 33.93789 -118.40872 107 ft 13 kts 83°
2026-04-21 04:40 33.93803 -118.40773 107 ft 9 kts 69°
2026-04-21 04:40 33.93858 -118.40752 104 ft 10 kts 339°
2026-04-21 04:41 33.93913 -118.40805 103 ft 9 kts 333°
2026-04-21 04:41 33.93965 -118.40818 102 ft 7 kts 352°
2026-04-21 04:41 33.94014 -118.40825 101 ft 7 kts 353°
2026-04-21 04:41 33.94068 -118.40833 101 ft 8 kts 353°
2026-04-21 04:42 33.94091 -118.40844 102 ft 3 kts 308°
2026-04-21 04:42 33.94094 -118.40869 103 ft 2 kts 265°
2026-04-21 04:42 33.94092 -118.40892 102 ft 3 kts 264°
2026-04-21 04:42 33.94089 -118.40919 102 ft 3 kts 263°
2026-04-21 04:43 33.94088 -118.40934 102 ft 1 kts 263°
2026-04-21 04:43 33.94087 -118.40941 102 ft 0 kts 263°